#datint,netname,site,siteID,timestamp,IntT,BattV,AirT2,AirT,AirT_Avg,AirT_Max,AirT_Min,RH_Avg,RH_Max,RH_Min,EA_Avg,Td_Avg,Td_Max,Td_Min,WindS_Smp,WindS_Avg,WindD_Avg,WindD_SD,WindS_Max,ETo,ETr,SoilT4,SoilT8,SoilVWC8,SolarW_Avg,wetstate_Avg,wetT_Avg,Precip_accum,Precip_WPG,Precip_TB
15min,AgWx,beryljct,423,30MAR2020:00:00:00,38.4,12.91,37.2,37.1,37.4,37.8,36.7,81,82,80,0.610,31.9,32.2,31.6,3.617,4.8,219,41,7.5,-0.00001,0.00000,40.9,41.0,24,0,.,.,11.21,0.00,0.00
15min,AgWx,beryljct,423,30MAR2020:00:15:00,38.5,12.89,37.7,37.5,37.5,37.9,37.1,80,81,79,0.612,32.0,32.3,31.7,3.968,5.2,178,13,8.2,0.00000,0.00001,40.8,41.0,24,0,.,.,11.21,0.00,0.00
15min,AgWx,beryljct,423,30MAR2020:00:30:00,38.6,12.89,37.9,38.0,37.7,38.0,37.5,79,81,78,0.606,31.9,32.2,31.7,3.091,3.0,168,47,7.3,-0.00005,-0.00005,40.7,41.0,24,0,.,.,11.21,0.00,0.00
15min,AgWx,beryljct,423,30MAR2020:00:45:00,38.4,12.88,38.1,37.7,37.6,38.0,37.2,79,80,78,0.606,31.6,31.9,31.3,4.932,3.7,156,28,6.8,-0.00003,-0.00002,40.6,41.0,24,0,.,.,11.21,0.00,0.00
15min,AgWx,beryljct,423,30MAR2020:01:00:00,38.1,12.88,37.6,37.1,37.1,37.8,36.4,80,82,78,0.601,31.4,31.8,31.0,0.636,2.6,165,28,5.6,-0.00006,-0.00007,40.5,41.0,24,0,.,.,11.21,0.00,0.00
15min,AgWx,beryljct,423,30MAR2020:01:15:00,37.3,12.87,35.3,35.6,36.0,37.2,35.3,82,84,79,0.578,30.9,31.5,30.3,1.03,2.5,193,25,4.6,-0.00008,-0.00009,40.4,41.0,24,0,.,.,11.21,0.00,0.00
15min,AgWx,beryljct,423,30MAR2020:01:30:00,36.4,12.86,33.3,33.9,35.3,35.8,33.9,82,83,82,0.544,30.5,31.1,29.2,6.423,3.8,183,18,6.5,-0.00004,-0.00004,40.3,41.0,24,0,.,.,11.21,0.00,0.00
15min,AgWx,beryljct,423,30MAR2020:01:45:00,35.4,12.86,32.5,32.4,32.7,33.9,31.8,87,90,83,0.554,29.3,30.0,28.6,8.26,6.1,184,11,9.0,-0.00002,-0.00001,40.2,41.0,24,0,.,.,11.21,0.00,0.00
15min,AgWx,beryljct,423,30MAR2020:02:00:00,34.4,12.85,32.5,32.9,32.4,33.5,31.8,89,90,87,0.550,29.5,30.8,28.9,3.091,4.9,185,13,7.7,-0.00004,-0.00004,40.1,41.0,25,0,.,.,11.21,0.00,0.00
15min,AgWx,beryljct,423,30MAR2020:02:15:00,33.7,12.84,32.9,32.5,32.2,32.8,31.8,89,90,87,0.554,29.2,29.7,28.8,4.713,5.3,187,7.0,7.3,-0.00004,-0.00003,40.0,41.0,24,0,.,.,11.21,0.00,0.00
15min,AgWx,beryljct,423,30MAR2020:02:30:00,33.1,12.83,30.4,30.7,31.5,32.6,30.6,89,90,88,0.522,28.6,29.6,28.0,3.157,4.5,193,8.2,5.3,-0.00005,-0.00005,39.9,41.0,24,0,.,.,11.21,0.00,0.00
15min,AgWx,beryljct,423,30MAR2020:02:45:00,32.4,12.82,30.1,30.6,31.4,32.3,30.6,89,91,86,0.509,28.5,29.4,27.3,4.735,4.4,175,21,6.5,-0.00005,-0.00005,39.8,41.0,24,0,.,.,11.21,0.00,0.00
15min,AgWx,beryljct,423,30MAR2020:03:00:00,32.2,12.81,32.3,31.9,31.5,31.9,30.4,89,90,88,0.535,28.5,28.9,27.3,5.48,6.7,163,5.0,8.5,-0.00002,-0.00001,39.7,41.0,24,0,.,.,11.21,0.00,0.00
15min,AgWx,beryljct,423,30MAR2020:03:15:00,32.1,12.8,32.2,31.5,31.8,32.1,31.5,88,89,88,0.532,28.7,28.9,28.5,3.486,4.3,179,19,7.7,-0.00005,-0.00005,39.6,40.9,24,0,.,.,11.21,0.00,0.00
15min,AgWx,beryljct,423,30MAR2020:03:30:00,31.9,12.78,32.7,31.8,31.5,31.8,31.2,90,91,89,0.549,28.8,29.4,28.5,3.266,2.6,199,11,3.3,-0.00009,-0.00010,39.5,40.9,24,0,.,.,11.21,0.00,0.00
15min,AgWx,beryljct,423,30MAR2020:03:45:00,31.9,12.78,32.2,31.9,32.3,32.8,31.7,88,91,87,0.538,29.2,29.9,28.3,4.867,3.8,198,26,5.0,-0.00006,-0.00006,39.4,40.9,24,0,.,.,11.21,0.00,0.00
15min,AgWx,beryljct,423,30MAR2020:04:00:00,31.8,12.78,33.0,32.7,32.3,32.7,31.9,88,89,87,0.545,29.0,29.3,28.4,2.17,3.3,171,8.4,4.9,-0.00007,-0.00007,39.4,40.9,24,0,.,.,11.21,0.00,0.00
15min,AgWx,beryljct,423,30MAR2020:04:15:00,31.4,12.76,31.1,30.5,30.7,32.6,29.8,88,91,85,0.518,27.7,29.1,26.7,1.469,1.9,146,6.9,3.1,-0.00010,-0.00013,39.3,40.8,24,0,.,.,11.21,0.00,0.00
15min,AgWx,beryljct,423,30MAR2020:04:30:00,31.0,12.74,32.1,32.1,31.3,32.6,29.8,89,91,86,0.531,28.5,29.7,26.9,3.464,3.3,158,16,6.9,-0.00007,-0.00008,39.2,40.8,25,0,.,.,11.21,0.00,0.00
15min,AgWx,beryljct,423,30MAR2020:04:45:00,30.8,12.75,29.6,30.4,31.3,32.0,30.4,88,89,86,0.506,28.0,28.5,27.4,2.981,3.3,169,5.7,4.1,-0.00006,-0.00007,39.1,40.8,24,0,.,.,11.21,0.00,0.00
15min,AgWx,beryljct,423,30MAR2020:05:00:00,30.3,12.75,29.1,28.6,28.6,30.3,28.2,91,93,88,0.493,26.3,27.3,25.8,3.376,3.6,139,7.1,4.5,-0.00006,-0.00007,39.0,40.8,24,0,.,.,11.21,0.00,0.00
15min,AgWx,beryljct,423,30MAR2020:05:15:00,29.7,12.72,29.1,28.6,28.8,29.2,28.6,93,93,92,0.492,27.0,27.4,26.7,2.959,3.2,148,3.9,3.9,-0.00008,-0.00009,38.9,40.8,24,0,.,.,11.22,0.00,0.00
15min,AgWx,beryljct,423,30MAR2020:05:30:00,29.2,12.73,28.1,27.9,28.4,29.3,27.8,92,93,91,0.479,26.5,27.6,25.7,0,1.2,152,78,2.9,-0.00012,-0.00017,38.8,40.7,24,0,.,.,11.22,0.00,0.00
15min,AgWx,beryljct,423,30MAR2020:05:45:00,28.6,12.73,28.0,27.8,27.6,27.9,27.2,94,94,93,0.483,25.9,26.3,25.4,2.083,0.4,298,28,2.2,-0.00015,-0.00023,38.8,40.7,24,0,.,.,11.22,0.00,0.00
15min,AgWx,beryljct,423,30MAR2020:06:00:00,28.3,12.71,33.0,31.6,29.6,31.6,27.7,93,95,89,0.534,27.8,29.6,26.2,0,1.2,163,54,2.5,-0.00013,-0.00017,38.7,40.7,24,0,.,.,11.22,0.00,0.00
15min,AgWx,beryljct,423,30MAR2020:06:15:00,28.4,12.72,31.0,30.4,30.7,32.0,30.0,87,89,84,0.502,27.2,28.9,26.2,2.368,1.5,291,27,3.6,-0.00011,-0.00015,38.6,40.6,24,0,.,.,11.22,0.00,0.00
15min,AgWx,beryljct,423,30MAR2020:06:30:00,28.9,12.72,30.7,30.5,31.5,32.2,30.5,86,88,83,0.485,27.8,28.4,26.2,2.872,4.6,281,55,7.8,-0.00003,-0.00003,38.5,40.6,24,0,.,.,11.21,0.00,0.00
15min,AgWx,beryljct,423,30MAR2020:06:45:00,29.3,12.7,33.5,33.3,31.3,33.6,30.2,85,86,81,0.521,27.3,29.1,26.1,2.039,3.2,11,44,5.3,0.00008,0.00014,38.4,40.6,24,0,.,.,11.22,0.00,0.00
15min,AgWx,beryljct,423,30MAR2020:07:00:00,29.5,12.7,30.6,29.3,31.5,33.3,28.7,82,86,81,0.468,26.7,28.1,23.9,1.863,2.0,51,82,3.9,0.00007,0.00011,38.4,40.6,24,0,.,.,11.22,0.00,0.00
15min,AgWx,beryljct,423,30MAR2020:07:15:00,29.5,12.7,27.2,27.7,30.7,33.5,27.7,84,88,78,0.449,26.4,29.2,24.1,3.486,3.4,147,39,6.1,0.00009,0.00016,38.3,40.5,24,1,.,.,11.21,0.00,0.00
15min,AgWx,beryljct,423,30MAR2020:07:30:00,28.9,12.71,27.1,26.7,26.7,27.6,26.2,90,92,88,0.452,24.3,24.7,23.9,3.442,4.1,158,16,5.5,0.00008,0.00012,38.2,40.5,24,6,.,.,11.22,0.00,0.00
15min,AgWx,beryljct,423,30MAR2020:07:45:00,28.3,12.72,27.9,27.1,26.7,27.2,26.5,93,93,92,0.465,24.8,25.4,24.5,4.845,3.5,169,7.7,5.0,0.00016,0.00020,38.1,40.5,25,38,.,.,11.22,0.00,0.00
15min,AgWx,beryljct,423,30MAR2020:08:00:00,28.4,12.76,28.0,27.7,27.5,27.8,27.2,92,93,92,0.472,25.6,25.9,25.3,4.954,5.2,155,4.6,6.6,0.00028,0.00033,38.1,40.4,24,79,.,.,11.22,0.00,0.00
15min,AgWx,beryljct,423,30MAR2020:08:15:00,29.2,12.8,30.3,29.9,29.1,29.9,27.7,92,93,91,0.510,27.0,27.6,25.7,4.406,5.0,164,6.3,7.4,0.00040,0.00046,38.0,40.4,24,123,.,.,11.22,0.00,0.00
15min,AgWx,beryljct,423,30MAR2020:08:30:00,30.6,12.87,31.6,31.3,30.6,31.3,29.9,91,91,91,0.536,28.2,28.8,27.6,4.187,4.6,159,5.2,5.4,0.00055,0.00063,37.9,40.4,24,170,.,.,11.21,0.00,0.00
15min,AgWx,beryljct,423,30MAR2020:08:45:00,32.3,13.03,35.0,34.2,32.6,34.2,31.3,90,91,90,0.597,30.0,31.6,28.9,3.025,3.3,160,6.3,4.8,0.00076,0.00084,37.9,40.3,24,221,.,.,11.21,0.00,0.00
15min,AgWx,beryljct,423,30MAR2020:09:00:00,34.3,13.36,35.2,35.0,34.9,35.2,34.2,89,90,87,0.609,31.8,32.3,31.4,3.683,3.4,133,17,4.7,0.00099,0.00109,37.8,40.3,24,274,.,.,11.21,0.00,0.00
15min,AgWx,beryljct,423,30MAR2020:09:15:00,36.3,13.95,37.4,36.8,36.0,36.9,34.9,87,89,84,0.623,32.6,33.2,31.9,3.442,3.6,125,10,4.5,0.00120,0.00133,37.7,40.2,24,328,.,.,11.21,0.00,0.00
15min,AgWx,beryljct,423,30MAR2020:09:30:00,38.1,14.65,39.3,38.4,37.7,38.7,36.8,81,84,78,0.617,32.3,33.0,31.7,4.231,4.2,137,11,5.2,0.00147,0.00166,37.7,40.2,24,382,.,.,11.21,0.00,0.00
15min,AgWx,beryljct,423,30MAR2020:09:45:00,40.1,14.64,39.5,39.4,38.9,39.4,38.4,76,78,73,0.600,32.0,32.7,31.5,1.491,3.5,132,15,5.2,0.00176,0.00198,37.6,40.2,24,434,.,.,11.21,0.00,0.00
15min,AgWx,beryljct,423,30MAR2020:10:00:00,42.2,14.62,40.8,40.8,40.2,41.1,39.4,73,75,69,0.598,32.1,33.0,31.5,2.039,3.6,134,17,5.4,0.00203,0.00229,37.6,40.2,24,485,.,.,11.21,0.00,0.00
15min,AgWx,beryljct,423,30MAR2020:10:15:00,44.3,14.54,41.6,42.2,41.7,42.4,40.9,68,70,66,0.617,32.1,32.8,31.3,2.916,3.2,110,20,6.2,0.00234,0.00262,37.6,40.1,24,534,.,.,11.21,0.00,0.00
15min,AgWx,beryljct,423,30MAR2020:10:30:00,46.4,14.5,45.8,43.4,42.9,43.5,42.1,66,68,65,0.634,32.5,33.2,31.7,3.442,2.5,50,39,4.3,0.00263,0.00291,37.5,40.1,24,580,.,.,11.21,0.00,0.00
15min,AgWx,beryljct,423,30MAR2020:10:45:00,48.5,14.49,44.1,44.0,43.5,44.1,43.0,65,67,63,0.629,32.4,33.7,31.8,3.573,2.5,303,36,4.8,0.00285,0.00316,37.5,40.1,24,623,.,.,11.20,0.00,0.00
15min,AgWx,beryljct,423,30MAR2020:11:00:00,50.2,14.44,44.1,45.2,44.5,45.8,43.8,61,64,58,0.615,31.7,33.0,30.6,3.201,1.9,29,70,4.4,0.00314,0.00346,37.5,40.0,24,666,.,.,11.21,0.00,0.00
15min,AgWx,beryljct,423,30MAR2020:11:15:00,51.7,14.42,45.6,46.1,45.9,46.8,45.0,57,62,52,0.550,31.7,33.6,29.4,3.244,3.1,161,51,5.8,0.00337,0.00378,37.6,40.0,24,707,.,.,11.20,0.00,0.00
15min,AgWx,beryljct,423,30MAR2020:11:30:00,52.7,14.42,45.6,46.3,46.3,47.1,45.4,53,56,51,0.562,30.1,32.1,28.9,2.324,2.5,141,45,5.0,0.00361,0.00403,37.8,40.0,24,744,.,.,11.20,0.00,0.00
15min,AgWx,beryljct,423,30MAR2020:11:45:00,53.5,13.99,46.5,46.6,46.5,47.0,46.2,52,56,49,0.543,29.7,31.9,28.4,0.46,2.2,348,39,4.2,0.00379,0.00420,38.1,39.9,24,775,.,.,11.20,0.00,0.00
15min,AgWx,beryljct,423,30MAR2020:12:00:00,54.4,14.01,47.5,48.3,47.5,48.3,46.6,51,55,48,0.560,30.3,32.4,28.9,7.322,2.5,102,61,7.6,0.00398,0.00443,38.4,39.9,24,806,.,.,11.19,0.00,0.00
15min,AgWx,beryljct,423,30MAR2020:12:15:00,54.8,13.97,49.9,48.0,48.0,48.6,47.4,47,50,44,0.521,28.7,30.4,26.8,2.433,3.6,132,35,7.9,0.00412,0.00467,38.8,39.9,24,831,.,.,11.19,0.00,0.00
15min,AgWx,beryljct,423,30MAR2020:12:30:00,55.2,13.97,49.2,50.5,49.2,50.5,48.3,45,49,42,0.600,28.7,31.6,26.9,4.209,3.2,165,29,7.1,0.00432,0.00487,39.2,39.9,24,852,.,.,11.19,0.00,0.00
15min,AgWx,beryljct,423,30MAR2020:12:45:00,55.7,13.94,48.8,49.8,49.4,50.5,48.5,46,51,43,0.542,29.3,32.7,27.4,5.787,4.7,125,31,7.4,0.00437,0.00502,39.7,39.9,24,871,.,.,11.19,0.00,0.00
15min,AgWx,beryljct,423,30MAR2020:13:00:00,56.1,13.95,49.7,50.3,49.8,50.7,49.2,42,46,40,0.500,27.9,30.6,26.1,0.219,3.2,160,36,6.1,0.00451,0.00510,40.2,39.9,24,884,.,.,11.19,0.00,0.00
15min,AgWx,beryljct,423,30MAR2020:13:15:00,56.8,13.94,50.5,51.8,50.5,51.9,49.7,44,49,40,0.601,29.6,32.5,27.1,6.599,3.2,70,65,7.5,0.00458,0.00516,40.7,39.9,24,892,.,.,11.18,0.00,0.00
15min,AgWx,beryljct,423,30MAR2020:13:30:00,57.5,14.01,51.1,51.5,51.4,52.7,50.7,42,48,38,0.492,29.1,33.6,26.7,0,4.2,166,21,10.0,0.00467,0.00536,41.2,39.9,24,899,.,.,11.18,0.00,0.00
15min,AgWx,beryljct,423,30MAR2020:13:45:00,57.9,13.91,52.7,52.5,51.5,53.1,50.7,40,44,38,0.543,28.0,31.7,26.3,3.617,2.9,40,75,11.1,0.00472,0.00531,41.7,39.9,24,900,.,.,11.18,0.00,0.00
15min,AgWx,beryljct,423,30MAR2020:14:00:00,58.4,13.86,53.7,53.3,52.7,53.4,51.9,39,45,36,0.549,28.3,32.3,25.9,3.486,3.2,90,89,7.4,0.00480,0.00544,42.3,39.9,24,899,.,.,11.17,0.00,0.00
15min,AgWx,beryljct,423,30MAR2020:14:15:00,59.0,13.86,52.9,53.0,53.5,54.3,52.9,36,42,34,0.500,27.5,31.5,25.5,2.565,4.3,109,37,7.1,0.00454,0.00527,42.8,40.0,24,831,.,.,11.17,0.00,0.00
15min,AgWx,beryljct,423,30MAR2020:14:30:00,59.5,13.88,55.0,54.4,53.9,54.8,52.7,35,40,31,0.522,27.0,30.7,24.6,8.59,5.7,157,36,11.6,0.00469,0.00556,43.3,40.1,24,865,.,.,11.17,0.00,0.00
15min,AgWx,beryljct,423,30MAR2020:14:45:00,60.2,13.82,54.7,54.0,54.4,55.2,53.9,35,41,31,0.494,27.2,31.4,24.3,7.695,4.9,143,48,10.0,0.00494,0.00577,43.8,40.1,24,900,.,.,11.17,0.00,0.00
15min,AgWx,beryljct,423,30MAR2020:15:00:00,61.0,13.82,54.7,54.3,54.7,55.4,53.8,36,41,33,0.470,28.4,32.2,25.4,3.464,6.8,144,26,10.7,0.00413,0.00507,44.3,40.2,24,735,.,.,11.17,0.00,0.00
15min,AgWx,beryljct,423,30MAR2020:15:15:00,61.4,13.85,58.2,56.2,55.9,56.6,54.4,36,41,29,0.460,29.1,33.3,24.7,6.533,6.8,158,33,14.6,0.00528,0.00630,44.8,40.3,24,943,.,.,11.17,0.00,0.00
15min,AgWx,beryljct,423,30MAR2020:15:30:00,61.9,13.8,57.8,57.1,56.3,57.3,55.3,28,35,23,0.390,23.5,29.8,18.3,9.4,7.5,247,46,14.5,0.00409,0.00519,45.3,40.4,24,677,.,.,11.17,0.00,0.00
15min,AgWx,beryljct,423,30MAR2020:15:45:00,61.4,13.82,56.1,56.1,56.2,57.3,55.4,23,26,21,0.346,19.2,22.7,15.8,5.305,7.9,281,32,15.6,0.00363,0.00480,45.7,40.5,24,561,.,.,11.17,0.00,0.00
15min,AgWx,beryljct,423,30MAR2020:16:00:00,61.6,13.8,57.6,57.2,57.2,58.0,56.1,26,31,21,0.359,22.8,26.7,17.3,0.307,6.8,252,31,13.5,0.00440,0.00549,46.1,40.6,24,734,.,.,11.17,0.00,0.00
15min,AgWx,beryljct,423,30MAR2020:16:15:00,62.3,13.79,56.0,57.0,57.5,58.7,56.6,31,45,23,0.365,26.5,36.3,19.0,10.26,9.9,230,32,16.7,0.00459,0.00589,46.4,40.7,24,755,.,.,11.16,0.00,0.00
15min,AgWx,beryljct,423,30MAR2020:16:30:00,62.3,13.8,55.7,56.0,57.3,58.0,56.0,21,26,15,0.327,18.0,22.8,9.3,10.65,8.9,262,21,14.5,0.00373,0.00504,46.7,40.8,24,561,.,.,11.17,0.00,0.00
15min,AgWx,beryljct,423,30MAR2020:16:45:00,61.3,13.83,55.9,56.2,55.7,57.3,54.6,36,41,21,0.604,28.6,32.6,17.1,12.19,10.2,229,17,15.3,0.00316,0.00429,47.0,41.0,24,495,.,.,11.17,0.00,0.00
15min,AgWx,beryljct,423,30MAR2020:17:00:00,60.9,13.82,55.6,55.7,56.2,56.7,55.6,38,40,37,0.591,31.1,32.6,29.9,18.83,13.9,215,13,19.2,0.00375,0.00510,47.2,41.1,24,597,.,.,11.17,0.00,0.00
15min,AgWx,beryljct,423,30MAR2020:17:15:00,60.4,13.82,56.3,55.9,55.6,55.9,55.1,38,40,37,0.610,30.5,32.1,29.6,11.62,12.9,214,12,20.7,0.00334,0.00461,47.4,41.2,24,522,.,.,11.17,0.00,0.00
15min,AgWx,beryljct,423,30MAR2020:17:30:00,60.0,13.83,55.4,55.6,55.8,56.4,55.4,38,40,36,0.599,30.6,32.5,28.9,17.65,12.4,210,11,18.4,0.00303,0.00426,47.5,41.4,24,452,.,.,11.17,0.01,0.00
15min,AgWx,beryljct,423,30MAR2020:17:45:00,59.6,13.83,55.0,55.1,55.4,55.9,55.0,39,42,38,0.578,31.2,32.8,30.0,11.44,13.2,203,9.2,19.9,0.00294,0.00418,47.6,41.5,24,436,.,.,11.17,0.00,0.00
15min,AgWx,beryljct,423,30MAR2020:18:00:00,59.2,13.82,54.2,54.8,55.2,55.6,54.8,42,43,39,0.610,32.2,33.3,30.8,14.8,12.8,207,10,16.4,0.00263,0.00379,47.7,41.7,24,383,.,.,11.18,0.01,0.00
15min,AgWx,beryljct,423,30MAR2020:18:15:00,58.6,13.83,53.9,54.2,54.5,55.1,54.0,42,44,40,0.631,31.8,32.8,30.8,13.88,13.0,206,11,18.0,0.00238,0.00351,47.7,41.8,24,330,.,.,11.18,0.00,0.00
15min,AgWx,beryljct,423,30MAR2020:18:30:00,57.8,13.89,53.2,53.4,53.9,54.2,53.4,44,45,42,0.600,32.4,33.1,31.3,14.23,13.5,200,10,17.8,0.00211,0.00320,47.8,41.9,24,278,.,.,11.18,0.00,0.00
15min,AgWx,beryljct,423,30MAR2020:18:45:00,56.9,13.88,52.9,52.8,53.2,53.6,52.8,45,47,43,0.621,32.3,33.6,31.2,12.96,13.5,201,9.8,17.8,0.00184,0.00289,47.8,42.0,24,227,.,.,11.18,0.01,0.00
15min,AgWx,beryljct,423,30MAR2020:19:00:00,56.0,13.94,52.0,51.9,52.3,52.8,51.9,46,47,45,0.609,32.2,32.8,31.6,15.04,14.1,200,11,18.4,0.00073,0.00084,47.7,42.2,24,177,.,.,11.18,0.00,0.00
15min,AgWx,beryljct,423,30MAR2020:19:15:00,55.0,13.26,51.5,51.4,51.7,52.0,51.3,48,49,46,0.608,32.5,33.4,31.8,12.61,12.2,199,11,15.9,0.00062,0.00073,47.7,42.3,24,130,.,.,11.18,0.00,0.00
15min,AgWx,beryljct,423,30MAR2020:19:30:00,53.9,13.2,50.3,50.6,51.0,51.5,50.6,48,49,47,0.610,32.0,32.6,31.5,9.67,10.9,196,6.6,15.2,0.00053,0.00064,47.7,42.4,24,85,.,.,11.18,0.00,0.00
15min,AgWx,beryljct,423,30MAR2020:19:45:00,52.7,13.13,49.0,49.3,49.9,50.7,49.1,50,53,48,0.618,32.2,32.7,31.7,10.26,9.8,198,6.3,14.8,0.00042,0.00052,47.6,42.5,24,45,.,.,11.18,0.00,0.00
15min,AgWx,beryljct,423,30MAR2020:20:00:00,51.2,13.1,47.4,47.7,48.4,49.3,47.6,54,55,52,0.621,32.4,32.6,32.1,8.53,9.1,200,5.6,11.1,0.00031,0.00039,47.5,42.6,24,9,.,.,11.19,0.00,0.00
15min,AgWx,beryljct,423,30MAR2020:20:15:00,49.7,13.06,47.5,46.1,47.0,47.6,46.1,57,59,55,0.625,32.4,32.7,32.1,9.89,8.2,208,6.6,10.4,0.00023,0.00030,47.4,42.7,24,2,.,.,11.19,0.00,0.00
15min,AgWx,beryljct,423,30MAR2020:20:30:00,48.4,13.04,46.4,46.5,46.4,46.6,46.2,57,59,56,0.607,32.2,32.6,31.8,7.804,8.5,214,4.9,10.0,0.00023,0.00030,47.2,42.8,24,0,.,.,11.19,0.01,0.00
15min,AgWx,beryljct,423,30MAR2020:20:45:00,47.5,13.04,46.0,45.7,46.1,46.5,45.7,57,58,56,0.610,31.9,32.0,31.8,9.32,8.6,210,4.4,9.8,0.00023,0.00030,47.1,42.9,24,0,.,.,11.19,0.00,0.00
15min,AgWx,beryljct,423,30MAR2020:21:00:00,46.8,13.02,45.4,45.3,45.4,45.8,45.1,59,59,58,0.602,31.8,32.0,31.6,9.01,9.1,213,4.3,11.3,0.00023,0.00029,46.9,42.9,24,0,.,.,11.20,0.01,0.00
15min,AgWx,beryljct,423,30MAR2020:21:15:00,46.5,13.01,46.6,46.5,46.2,46.7,45.3,55,59,54,0.581,31.1,31.7,30.7,10.9,11.0,222,6.5,13.5,0.00030,0.00037,46.7,43.0,24,0,.,.,11.20,0.00,0.00
15min,AgWx,beryljct,423,30MAR2020:21:30:00,46.4,13.01,47.0,46.4,46.2,46.5,46.0,54,55,54,0.578,30.7,30.9,30.6,13.7,11.4,225,5.7,14.0,0.00032,0.00039,46.5,43.1,24,0,.,.,11.20,0.00,0.00
15min,AgWx,beryljct,423,30MAR2020:21:45:00,46.5,12.99,46.9,46.9,46.7,47.0,46.4,53,54,52,0.564,30.4,30.7,30.0,11.51,12.7,227,5.7,15.0,0.00037,0.00044,46.4,43.2,24,0,.,.,11.20,0.00,0.00
15min,AgWx,beryljct,423,30MAR2020:22:00:00,46.6,12.98,47.5,47.3,46.9,47.3,46.7,52,52,49,0.547,29.9,30.3,29.3,11.79,12.2,229,5.8,15.0,0.00037,0.00044,46.2,43.2,24,0,.,.,11.20,0.00,0.00
15min,AgWx,beryljct,423,30MAR2020:22:15:00,46.6,12.99,46.7,46.9,47.0,47.3,46.8,50,51,49,0.546,29.4,29.6,29.2,9.82,11.7,232,5.1,15.7,0.00038,0.00045,46.0,43.3,24,0,.,.,11.20,0.00,0.00
15min,AgWx,beryljct,423,30MAR2020:22:30:00,46.6,12.97,46.7,46.8,46.7,47.0,46.3,50,51,49,0.542,29.2,29.6,28.9,10.11,11.0,230,9.9,14.4,0.00035,0.00043,45.8,43.3,24,0,.,.,11.20,0.00,0.00
15min,AgWx,beryljct,423,30MAR2020:22:45:00,46.4,12.96,46.2,46.5,46.4,46.8,46.0,50,52,49,0.536,28.9,29.3,28.7,8.35,9.1,213,6.7,11.5,0.00030,0.00038,45.6,43.3,24,0,.,.,11.20,0.00,0.00
15min,AgWx,beryljct,423,30MAR2020:23:00:00,45.6,12.95,42.1,41.6,42.7,46.4,40.7,60,66,50,0.565,29.7,30.5,28.7,9.4,9.1,162,15,11.6,0.00020,0.00026,45.5,43.4,24,0,.,.,11.20,0.00,0.00
15min,AgWx,beryljct,423,30MAR2020:23:15:00,44.0,12.95,39.2,39.3,40.5,41.7,39.3,65,68,63,0.551,29.6,30.1,29.4,6.555,7.5,178,10,9.5,0.00012,0.00016,45.3,43.4,24,0,.,.,11.20,0.00,0.00
15min,AgWx,beryljct,423,30MAR2020:23:30:00,42.5,12.95,41.4,40.8,40.0,41.1,38.7,66,69,63,0.553,29.6,30.0,29.3,10.28,7.5,178,7.8,10.3,0.00011,0.00015,45.1,43.4,24,0,.,.,11.20,0.01,0.00
15min,AgWx,bigpiney,439,30MAR2020:00:00:00,24.5,12.79,23.6,23.0,21.8,23.0,20.7,86,88,82,0.345,18.3,19.2,17.1,2.587,2.5,184,37,4.8,-0.00004,-0.00005,31.6,31.7,15,0,0,0.0,6.04,0.00,0.00
15min,AgWx,bigpiney,439,30MAR2020:00:15:00,24.1,12.78,21.9,21.9,22.6,23.1,21.9,82,83,81,0.332,18.0,18.3,17.3,2.324,2.0,274,40,3.6,-0.00005,-0.00006,31.6,31.8,15,0,0,0.0,6.04,0.00,0.00
15min,AgWx,bigpiney,439,30MAR2020:00:30:00,23.7,12.77,21.6,21.9,22.1,22.5,21.6,86,88,83,0.340,18.5,19.2,17.3,0,1.6,58,14,2.2,-0.00007,-0.00008,31.6,31.8,15,0,0,0.0,6.04,0.00,0.00
15min,AgWx,bigpiney,439,30MAR2020:00:45:00,23.3,12.76,21.7,21.8,21.8,22.3,21.0,85,86,84,0.336,17.9,18.4,17.0,2.258,2.1,202,9.0,4.7,-0.00005,-0.00006,31.6,31.8,15,0,0,0.0,6.04,0.00,0.00
15min,AgWx,bigpiney,439,30MAR2020:01:00:00,23.0,12.75,22.8,22.6,22.3,23.4,21.5,83,85,79,0.330,18.0,18.9,17.3,0,1.3,187,18,2.7,-0.00007,-0.00009,31.6,31.8,15,0,0,0.0,6.04,0.00,0.00
15min,AgWx,bigpiney,439,30MAR2020:01:15:00,22.7,12.75,22.6,22.4,22.4,22.7,22.0,81,85,79,0.348,17.6,18.6,16.9,1.293,0.7,272,76,1.9,-0.00009,-0.00013,31.6,31.8,15,0,0,0.0,6.04,0.00,0.00
15min,AgWx,bigpiney,439,30MAR2020:01:30:00,22.5,12.74,21.0,21.0,22.0,22.4,21.0,86,87,85,0.338,18.6,19.0,17.8,2.389,2.0,38,7.6,3.4,-0.00006,-0.00007,31.6,31.8,15,0,0,0.0,6.04,0.00,0.00
15min,AgWx,bigpiney,439,30MAR2020:01:45:00,22.3,12.74,20.4,20.1,20.5,21.0,20.0,89,90,87,0.335,17.9,18.3,17.3,1.732,0.7,350,52,3.0,-0.00009,-0.00013,31.6,31.8,15,0,0,0.0,6.04,0.00,0.00
15min,AgWx,bigpiney,439,30MAR2020:02:00:00,22.0,12.73,21.0,20.7,20.3,20.7,19.9,90,90,88,0.338,17.7,18.0,17.4,2.916,2.1,248,14,3.1,-0.00006,-0.00007,31.6,31.8,15,0,0,0.0,6.04,0.00,0.00
15min,AgWx,bigpiney,439,30MAR2020:02:15:00,21.8,12.73,19.1,19.0,20.4,21.3,19.0,86,89,83,0.297,17.0,18.1,14.9,2.784,2.9,210,7.7,3.9,-0.00004,-0.00004,31.6,31.8,15,0,0,0.0,6.04,0.00,0.00
15min,AgWx,bigpiney,439,30MAR2020:02:30:00,21.5,12.72,19.2,19.2,18.8,19.5,18.2,86,88,84,0.314,15.3,16.3,14.5,0.132,1.0,303,54,3.3,-0.00008,-0.00010,31.6,31.8,15,0,0,0.0,6.04,0.00,0.00
15min,AgWx,bigpiney,439,30MAR2020:02:45:00,21.1,12.7,19.6,18.7,19.1,19.5,18.3,89,90,88,0.314,16.3,16.8,15.4,1.688,0.6,245,35,2.5,-0.00009,-0.00013,31.6,31.7,15,0,0,0.0,6.04,0.00,0.00
15min,AgWx,bigpiney,439,30MAR2020:03:00:00,20.7,12.69,19.2,19.1,18.6,19.3,17.9,89,90,87,0.315,15.8,16.6,14.9,0,1.0,238,22,2.7,-0.00008,-0.00011,31.6,31.8,15,0,0,0.0,6.04,0.00,0.00
15min,AgWx,bigpiney,439,30MAR2020:03:15:00,20.4,12.68,20.4,19.4,19.0,19.9,18.0,86,89,83,0.304,15.5,16.1,14.7,1.732,1.5,207,37,2.2,-0.00006,-0.00008,31.6,31.8,15,0,0,0.0,6.04,0.00,0.00
15min,AgWx,bigpiney,439,30MAR2020:03:30:00,20.3,12.68,20.1,19.9,20.5,21.0,19.5,81,84,79,0.298,15.5,16.2,14.9,3.836,2.0,223,15,3.8,-0.00004,-0.00005,31.6,31.8,15,0,0,0.0,6.04,0.00,0.00
15min,AgWx,bigpiney,439,30MAR2020:03:45:00,20.4,12.67,20.0,19.0,19.2,19.9,18.8,85,87,81,0.311,15.4,16.1,14.7,2.455,3.1,237,8.7,4.0,-0.00003,-0.00003,31.6,31.8,15,0,0,0.0,6.04,0.00,0.00
15min,AgWx,bigpiney,439,30MAR2020:04:00:00,20.6,12.66,20.5,20.3,20.5,21.3,19.0,85,88,82,0.311,16.7,17.0,15.9,0,2.3,314,25,4.5,-0.00004,-0.00005,31.6,31.8,15,0,0,0.0,6.04,0.00,0.00
15min,AgWx,bigpiney,439,30MAR2020:04:15:00,20.7,12.64,21.0,20.6,20.7,21.2,20.3,83,85,82,0.317,16.5,17.2,16.0,2.368,2.0,360,52,3.6,-0.00005,-0.00006,31.6,31.8,15,0,0,0.0,6.04,0.00,0.00
15min,AgWx,bigpiney,439,30MAR2020:04:30:00,20.8,12.64,20.6,20.0,20.0,20.7,19.6,84,86,82,0.318,16.0,16.4,15.7,4.494,2.4,295,29,4.5,-0.00004,-0.00005,31.6,31.8,15,0,0,0.0,6.04,0.00,0.00
15min,AgWx,bigpiney,439,30MAR2020:04:45:00,20.9,12.64,20.2,19.9,19.8,20.5,19.0,87,88,85,0.321,16.4,17.4,15.3,0,2.5,231,47,5.3,-0.00004,-0.00005,31.6,31.8,15,0,0,0.0,6.04,0.00,0.00
15min,AgWx,bigpiney,439,30MAR2020:05:00:00,21.2,12.63,22.5,21.8,21.1,21.8,19.9,86,88,85,0.343,17.6,18.2,16.6,1.206,1.0,66,51,2.4,-0.00008,-0.00011,31.6,31.8,15,0,0,0.0,6.04,0.00,0.00
15min,AgWx,bigpiney,439,30MAR2020:05:15:00,21.6,12.62,22.1,21.7,21.9,22.1,21.7,85,87,84,0.343,18.1,18.4,17.8,1.03,0.4,333,58,1.4,-0.00010,-0.00015,31.6,31.8,15,0,0,0.0,6.04,0.00,0.00
15min,AgWx,bigpiney,439,30MAR2020:05:30:00,22.1,12.61,22.7,22.2,21.8,22.2,21.5,86,87,85,0.349,18.3,18.6,18.0,2.346,2.5,210,17,4.4,-0.00005,-0.00005,31.6,31.8,15,0,0,0.0,6.04,0.00,0.00
15min,AgWx,bigpiney,439,30MAR2020:05:45:00,22.6,12.6,22.3,22.5,22.4,22.7,22.1,86,87,86,0.358,18.9,19.4,18.5,2.17,1.8,192,11,3.9,-0.00006,-0.00008,31.6,31.8,15,0,0,0.0,6.04,0.00,0.00
15min,AgWx,bigpiney,439,30MAR2020:06:00:00,23.1,12.6,23.9,23.6,23.0,23.7,22.2,86,87,85,0.372,19.6,20.2,18.9,1.293,0.8,221,24,1.6,-0.00009,-0.00013,31.6,31.8,15,0,0,0.0,6.04,0.00,0.00
15min,AgWx,bigpiney,439,30MAR2020:06:15:00,23.5,12.59,23.4,23.1,23.3,23.6,23.0,87,88,86,0.369,20.0,20.3,19.6,3.749,2.6,210,9.9,4.8,-0.00005,-0.00006,31.6,31.7,15,0,0,0.0,6.04,0.00,0.00
15min,AgWx,bigpiney,439,30MAR2020:06:30:00,23.8,12.58,22.0,21.8,22.6,23.2,21.8,87,87,86,0.349,19.2,19.9,18.5,2.674,4.0,225,4.2,5.1,-0.00002,-0.00002,31.6,31.8,15,0,0,0.0,6.04,0.00,0.00
15min,AgWx,bigpiney,439,30MAR2020:06:45:00,23.6,12.58,21.8,21.4,21.6,21.8,21.4,87,88,86,0.339,18.3,18.5,17.9,1.513,2.5,226,13,3.5,-0.00005,-0.00005,31.6,31.8,15,0,0,0.0,6.04,0.00,0.00
15min,AgWx,bigpiney,439,30MAR2020:07:00:00,23.2,12.58,21.3,20.9,20.9,21.5,20.4,86,87,85,0.333,17.3,17.9,16.7,3.595,3.1,228,17,4.6,-0.00003,-0.00004,31.6,31.8,15,1,0,0.0,6.04,0.00,0.00
15min,AgWx,bigpiney,439,30MAR2020:07:15:00,22.7,12.62,22.2,21.9,21.5,22.3,20.9,85,86,83,0.333,17.7,18.1,17.3,4.472,3.4,245,9.7,4.5,-0.00002,-0.00002,31.6,31.8,15,6,0,0.0,6.04,0.00,0.00
15min,AgWx,bigpiney,439,30MAR2020:07:30:00,22.4,12.74,21.6,20.9,21.4,22.0,20.8,83,84,82,0.320,17.1,17.7,16.4,4.801,3.8,235,35,4.8,-0.00015,-0.00011,31.6,31.8,15,23,0,0.0,6.04,0.00,0.00
15min,AgWx,bigpiney,439,30MAR2020:07:45:00,22.3,13.03,22.3,21.8,21.5,22.0,20.9,86,90,82,0.358,18.0,19.4,16.3,3.091,2.8,1.2,28,4.6,-0.00002,0.00001,31.6,31.8,15,75,0,0.0,6.04,0.00,0.00
15min,AgWx,bigpiney,439,30MAR2020:08:00:00,22.5,14.96,22.7,22.2,22.0,22.2,21.6,90,90,89,0.366,19.4,19.7,19.0,0.855,1.7,9.6,8.8,3.8,0.00009,0.00011,31.6,31.8,15,115,0,0.0,6.04,0.00,0.00